TimeCDT,TemperatureF,Dew PointF,Humidity,Sea Level PressureIn,VisibilityMPH,Wind Direction,Wind SpeedMPH,Gust SpeedMPH,PrecipitationIn,Events,Conditions,WindDirDegrees,DateUTC
12:54 AM,37.0,26.1,65,30.04,10.0,WNW,11.5,20.7,N/A,,Overcast,300,2012-10-06 05:54:00
1:54 AM,37.0,26.1,65,30.04,10.0,WNW,11.5,-,N/A,,Overcast,290,2012-10-06 06:54:00
2:12 AM,37.4,26.6,65,30.01,10.0,WNW,13.8,-,N/A,,Overcast,300,2012-10-06 07:12:00
2:54 AM,37.0,26.1,65,30.04,10.0,WNW,16.1,20.7,N/A,,Overcast,300,2012-10-06 07:54:00
3:54 AM,37.0,27.0,67,30.04,10.0,NW,12.7,-,N/A,,Overcast,310,2012-10-06 08:54:00
4:42 AM,35.6,28.4,75,30.02,10.0,NW,10.4,-,0.00,,Overcast,310,2012-10-06 09:42:00
4:54 AM,37.0,28.9,73,30.06,10.0,NW,11.5,-,0.00,,Overcast,320,2012-10-06 09:54:00
5:02 AM,37.4,28.4,70,30.02,10.0,NW,12.7,-,N/A,,Overcast,320,2012-10-06 10:02:00
5:54 AM,36.0,28.0,73,30.08,10.0,NW,18.4,27.6,N/A,,Overcast,310,2012-10-06 10:54:00
6:54 AM,36.0,28.0,73,30.10,10.0,NW,13.8,-,N/A,,Overcast,320,2012-10-06 11:54:00
7:35 AM,33.8,28.4,81,30.08,10.0,NW,11.5,-,N/A,,Scattered Clouds,310,2012-10-06 12:35:00
7:54 AM,35.1,28.0,76,30.13,10.0,WNW,10.4,-,N/A,,Scattered Clouds,300,2012-10-06 12:54:00
8:03 AM,35.6,28.4,75,30.09,10.0,WNW,13.8,-,N/A,,Mostly Cloudy,300,2012-10-06 13:03:00
8:31 AM,35.6,28.4,75,30.10,10.0,NW,12.7,-,N/A,,Mostly Cloudy,320,2012-10-06 13:31:00
8:43 AM,35.6,28.4,75,30.10,10.0,NW,13.8,-,N/A,,Scattered Clouds,320,2012-10-06 13:43:00
8:54 AM,37.0,28.9,73,30.15,10.0,NW,15.0,-,N/A,,Scattered Clouds,320,2012-10-06 13:54:00
9:23 AM,37.4,28.4,70,30.12,10.0,NNW,16.1,24.2,N/A,,Mostly Cloudy,330,2012-10-06 14:23:00
9:54 AM,37.9,28.0,68,30.17,10.0,NNW,11.5,-,N/A,,Overcast,330,2012-10-06 14:54:00
10:54 AM,39.9,27.0,60,30.18,10.0,NNW,13.8,-,N/A,,Overcast,330,2012-10-06 15:54:00
11:13 AM,41.0,26.6,57,30.14,10.0,NNW,15.0,20.7,N/A,,Mostly Cloudy,330,2012-10-06 16:13:00
11:54 AM,41.0,26.1,55,30.18,10.0,North,15.0,-,N/A,,Mostly Cloudy,350,2012-10-06 16:54:00
12:54 PM,42.1,25.0,51,30.18,10.0,NNW,13.8,-,N/A,,Mostly Cloudy,340,2012-10-06 17:54:00
1:54 PM,42.1,26.1,53,30.17,10.0,NNW,16.1,-,N/A,,Overcast,330,2012-10-06 18:54:00
2:54 PM,43.0,25.0,49,30.17,10.0,NNW,8.1,19.6,N/A,,Overcast,330,2012-10-06 19:54:00
3:54 PM,41.0,24.1,51,30.18,10.0,NNW,10.4,-,N/A,,Overcast,340,2012-10-06 20:54:00
4:54 PM,41.0,24.1,51,30.18,10.0,NNW,11.5,-,N/A,,Overcast,330,2012-10-06 21:54:00
6:54 PM,39.9,23.0,51,30.20,10.0,NNW,6.9,-,N/A,,Overcast,330,2012-10-06 23:54:00
7:54 PM,39.0,23.0,53,30.22,10.0,NNW,6.9,-,N/A,,Overcast,330,2012-10-07 00:54:00
8:54 PM,37.9,24.1,57,30.22,10.0,NNW,3.5,-,N/A,,Overcast,340,2012-10-07 01:54:00
9:54 PM,37.0,24.1,59,30.22,10.0,Calm,Calm,-,N/A,,Overcast,0,2012-10-07 02:54:00
10:54 PM,37.0,24.1,59,30.22,10.0,WNW,3.5,-,N/A,,Overcast,290,2012-10-07 03:54:00
11:54 PM,37.0,24.1,59,30.21,10.0,WNW,4.6,-,N/A,,Overcast,300,2012-10-07 04:54:00